Location: Trebic
(49.2170°N, 15.8830°E)
Time: 09:04:37
(UTC+02:00)

Vanguard 2 Rocket - All Passes

Search period start: 18 July 2019 00:00
Search period end: 28 July 2019 00:00
Orbit: 554 x 3326 km, 32.9° (Epoch: 18 July)

Date Brightness Start Highest point End Pass type
(mag) Time Alt. Az. Time Alt. Az. Time Alt. Az.
18 Jul - 14:38:42 10° SSW 14:40:52 12° S 14:42:46 10° SSE daylight
18 Jul - 16:51:50 10° SSW 16:52:54 11° S 16:53:54 10° S daylight
19 Jul - 13:39:01 10° S 13:41:35 12° S 13:43:49 10° SSE daylight
19 Jul - 15:51:12 10° SSW 15:53:54 13° S 15:56:12 10° SSE daylight
20 Jul - 12:39:44 10° S 12:42:08 11° SSE 12:44:16 10° SSE daylight
20 Jul - 14:50:51 10° SW 14:54:48 15° S 14:57:55 10° SE daylight
21 Jul - 13:50:28 10° SSW 13:55:32 17° S 13:59:23 10° SE daylight
21 Jul - 16:04:40 10° SW 16:07:43 14° SSW 16:10:16 10° SSE daylight
22 Jul - 12:50:07 10° SSW 12:56:05 17° S 13:00:33 10° SE daylight
22 Jul - 15:03:53 10° SW 15:08:40 18° S 15:12:17 10° SE daylight
23 Jul - 11:49:59 10° SSW 11:56:25 16° SSE 12:01:21 10° SE daylight
23 Jul - 14:03:04 10° SW 14:09:26 21° S 14:13:58 10° SE daylight
23 Jul - 16:18:39 10° SW 16:21:27 13° SSW 16:23:49 10° S daylight
24 Jul - 10:50:21 10° S 10:56:32 15° SSE 11:01:31 10° SE daylight
24 Jul - 13:02:12 10° SW 13:10:00 22° S 13:15:23 10° SE daylight
24 Jul - 15:17:22 10° SW 15:22:27 18° SSW 15:26:14 10° SSE daylight
25 Jul - 09:51:50 10° S 09:56:29 12° SSE 10:00:31 10° SE daylight
25 Jul - 12:01:22 10° SSW 12:10:18 22° S 12:16:31 10° ESE daylight
25 Jul - 14:16:12 10° SW 14:23:16 23° S 14:28:08 10° SE daylight
25 Jul - 16:33:28 10° SW 16:35:02 11° SSW 16:36:28 10° SSW daylight
26 Jul - 11:00:45 10° SSW 11:10:22 21° SSE 11:17:17 10° ESE daylight
26 Jul - 13:14:56 10° SW 13:23:51 26° S 13:29:44 10° SE daylight
26 Jul - 15:31:12 10° WSW 15:36:07 17° SSW 15:39:50 10° SSE daylight
27 Jul - 10:00:37 10° SSW 10:10:13 19° SSE 10:17:31 10° ESE daylight
27 Jul - 12:13:38 10° SW 12:24:09 28° S 12:31:03 10° ESE daylight
27 Jul - 14:29:39 10° WSW 14:37:00 23° SSW 14:42:02 10° SE daylight
